DW2147 Weather Reports


Display with metric or nautical units.
time (UTC)temp
F
wind
direction
speed
MPH
gust
MPH
rain 1hr
in
rain 24hr
in
rain mn
in
humidity
%
barometer
mb
20260510123737 61 0 5.0 11.0 0.00 0.06 0.00 64 1013.9
20260510123236 61 0 6.0 12.0 0.00 0.07 0.00 63 1013.9
20260510122735 61 0 6.0 12.0 0.00 0.07 0.00 64 1013.8
20260510122236 60 0 5.0 11.0 0.00 0.07 0.00 64 1013.5
20260510121734 60 0 6.0 10.0 0.00 0.08 0.00 64 1013.4
20260510121234 60 0 7.0 12.0 0.00 0.08 0.00 64 1013.2
20260510120733 60 0 7.0 12.0 0.00 0.08 0.00 64 1013.3
20260510120237 59 0 7.0 12.0 0.00 0.08 0.00 65 1013.3
20260510115736 59 0 6.0 12.0 0.00 0.08 0.00 65 1013.3
20260510115504 58 0 5.0 11.0 0.00 0.08 0.00 66 1013.2
20260510114734 58 0 6.0 12.0 0.00 0.09 0.00 66 1013.0
20260510114233 58 0 6.0 12.0 0.00 0.09 0.00 66 1013.0
20260510113733 57 0 4.0 10.0 0.00 0.10 0.00 67 1012.9
20260510113234 57 0 4.0 10.0 0.00 0.10 0.00 67 1012.7
20260510112732 57 0 5.0 9.0 0.00 0.11 0.00 67 1012.7
20260510112500 57 0 5.0 9.0 0.00 0.11 0.00 68 1012.5
20260510111726 56 0 4.0 9.0 0.00 0.11 0.00 68 1012.5
20260510111228 56 0 4.0 9.0 0.00 0.12 0.00 68 1012.6
20260510110958 56 0 4.0 9.0 0.00 0.12 0.00 68 1012.6
20260510110227 56 0 3.0 8.0 0.00 0.12 0.00 68 1012.5
20260510105727 56 0 3.0 8.0 0.00 0.12 0.00 68 1012.2
20260510105220 56 0 3.0 9.0 0.00 0.12 0.00 68 1012.3
20260510104721 56 0 4.0 9.0 0.00 0.12 0.00 68 1012.3
20260510104220 56 0 3.0 9.0 0.00 0.13 0.00 68 1012.0
20260510103721 56 0 3.0 10.0 0.00 0.13 0.00 68 1012.0
20260510103221 56 0 4.0 10.0 0.00 0.13 0.00 68 1012.0
20260510102723 56 0 4.0 9.0 0.00 0.13 0.00 69 1011.8
20260510102214 56 0 4.0 9.0 0.00 0.13 0.00 69 1011.6
20260510101714 55 0 4.0 9.0 0.00 0.14 0.00 69 1011.4
20260510101447 55 203 4.0 9.0 0.00 0.14 0.00 70 1011.4
20260510100947 55 0 3.0 9.0 0.00 0.14 0.00 70 1011.4
20260510100214 55 0 3.0 8.0 0.00 0.14 0.00 70 1011.3
20260510095714 55 0 3.0 8.0 0.00 0.15 0.00 70 1011.3
20260510095212 54 0 3.0 8.0 0.00 0.15 0.00 70 1011.4
20260510094942 54 0 2.0 5.0 0.00 0.15 0.00 71 1011.3
20260510094211 54 240 1.0 4.0 0.00 0.16 0.00 71 1011.3
20260510093943 54 0 1.0 3.0 0.00 0.16 0.00 71 1011.4
20260510093209 54 0 1.0 4.0 0.00 0.17 0.00 72 1011.3
20260510092940 54 0 1.0 4.0 0.00 0.17 0.00 72 1011.2
20260510092201 55 0 0.0 2.0 0.00 0.18 0.00 72 1011.2
20260510091701 55 0 1.0 2.0 0.00 0.19 0.00 71 1011.1
20260510091204 55 0 0.0 3.0 0.00 0.20 0.00 72 1011.2
20260510091159 55 0 1.0 3.0 0.00 0.20 0.00 71 1011.2
20260510090156 55 279 1.0 2.0 0.00 0.21 0.00 72 1011.1
20260510085655 55 0 1.0 3.0 0.00 0.22 0.00 72 1011.1
20260510085154 56 0 1.0 3.0 0.00 0.22 0.00 72 1011.1
20260510084654 56 281 1.0 2.0 0.00 0.23 0.00 72 1011.1
20260510084154 56 0 1.0 3.0 0.00 0.24 0.00 71 1011.0
20260510083654 56 281 1.0 3.0 0.00 0.25 0.00 71 1010.9
20260510083158 56 312 0.0 3.0 0.00 0.25 0.00 71 1010.9
20260510083153 57 313 1.0 2.0 0.00 0.26 0.00 71 1010.9
20260510082759 57 315 0.0 2.0 0.00 0.26 0.00 71 1010.9
20260510081648 57 313 1.0 2.0 0.00 0.26 0.00 71 1010.9
20260510081148 57 316 1.0 3.0 0.00 0.26 0.00 71 1010.8
20260510080646 57 315 1.0 3.0 0.00 0.26 0.00 71 1010.8
20260510080147 57 0 2.0 5.0 0.00 0.26 0.00 71 1010.8
20260510075650 57 318 3.0 5.0 0.00 0.26 0.00 71 1010.8
20260510075139 57 0 2.0 5.0 0.00 0.26 0.00 71 1010.8
20260510074914 58 0 3.0 6.0 0.00 0.26 0.00 71 1010.5
20260510074638 58 216 3.0 6.0 0.00 0.26 0.00 71 1010.7
20260510073634 58 0 3.0 6.0 0.00 0.26 0.00 71 1010.6
20260510073408 58 201 3.0 6.0 0.00 0.26 0.00 71 1010.4
20260510072630 58 0 3.0 8.0 0.00 0.26 0.00 71 1010.4
20260510072131 58 0 4.0 11.0 0.00 0.26 0.00 71 1010.4
20260510071901 58 0 4.0 11.0 0.00 0.26 0.00 71 1010.4
20260510071131 58 0 3.0 8.0 0.00 0.26 0.00 70 1010.3
20260510070629 58 0 4.0 14.0 0.00 0.26 0.00 70 1010.4
20260510070129 58 212 5.0 14.0 0.00 0.26 0.00 70 1010.4
20260510065622 58 0 5.0 12.0 0.00 0.26 0.00 70 1010.2
20260510065512 58 0 4.0 10.0 0.00 0.26 0.00 70 1010.4
20260510065404 58 0 5.0 12.0 0.00 0.26 0.00 71 1010.3
20260510064123 58 0 4.0 9.0 0.00 0.26 0.00 70 1010.2
20260510063853 58 0 4.0 9.0 0.00 0.26 0.00 70 1010.4
20260510063119 58 0 4.0 9.0 0.00 0.26 0.00 70 1010.5
20260510062617 58 0 3.0 9.0 0.00 0.26 0.00 70 1010.5
20260510062117 58 0 3.0 6.0 0.00 0.26 0.00 70 1010.5
20260510061619 58 0 3.0 6.0 0.00 0.26 0.00 70 1010.6
20260510061119 58 0 2.0 6.0 0.00 0.26 0.00 70 1010.6
20260510060619 58 168 3.0 5.0 0.00 0.26 0.00 70 1010.6
20260510060114 58 199 2.0 5.0 0.00 0.26 0.00 69 1010.6
20260510055613 58 0 2.0 4.0 0.00 0.26 0.00 69 1010.6
20260510055114 59 207 2.0 5.0 0.00 0.26 0.00 69 1010.7
20260510054845 59 219 2.0 5.0 0.00 0.26 0.00 69 1010.8
20260510054120 59 195 3.0 5.0 0.00 0.26 0.00 69 1010.9
20260510054113 59 194 3.0 5.0 0.00 0.26 0.00 69 1010.8
20260510053110 59 190 3.0 6.0 0.00 0.26 0.00 68 1010.9
20260510052609 59 183 3.0 6.0 0.00 0.26 0.00 68 1011.0
20260510052109 59 0 2.0 5.0 0.00 0.26 0.00 68 1011.1
20260510051841 60 203 2.0 5.0 0.00 0.26 0.00 68 1011.1
20260510051341 60 200 2.0 3.0 0.00 0.26 0.00 68 1011.1
20260510050611 60 199 2.0 5.0 0.00 0.26 0.00 67 1011.1
20260510050110 60 199 2.0 5.0 0.00 0.26 0.00 67 1011.1
20260510045611 60 172 2.0 6.0 0.00 0.26 0.00 66 1011.2
20260510045111 60 173 1.0 6.0 0.00 0.26 0.00 66 1011.2
20260510044610 61 246 0.0 2.0 0.00 0.26 0.00 66 1011.4
20260510044343 61 246 1.0 6.0 0.00 0.26 0.00 66 1011.3
20260510043842 61 246 3.0 9.0 0.00 0.26 0.00 66 1011.2
20260510043109 61 0 5.0 12.0 0.00 0.26 0.00 66 1011.4
20260510042613 61 321 4.0 12.0 0.00 0.26 0.00 66 1011.3
20260510042338 61 338 2.0 8.0 0.00 0.26 0.00 66 1011.1
20260510041607 60 288 4.0 15.0 0.00 0.26 0.00 66 1011.1
20260510041107 60 217 5.0 15.0 0.00 0.26 0.00 67 1010.9
20260510040607 60 223 7.0 18.0 0.00 0.26 0.00 67 1010.8
20260510040336 60 30 8.0 18.0 0.00 0.26 0.00 67 1010.6
20260510035603 60 0 6.0 13.0 0.00 0.26 0.26 67 1011.2
20260510035104 59 311 4.0 9.0 0.00 0.26 0.26 67 1010.4
20260510034602 59 0 4.0 9.0 0.00 0.26 0.26 67 1010.3
20260510034103 59 0 4.0 9.0 0.00 0.26 0.26 67 1010.3
20260510033601 59 0 4.0 9.0 0.00 0.26 0.26 67 1010.3
20260510033103 59 0 4.0 9.0 0.00 0.26 0.26 67 1010.2
20260510032555 59 200 4.0 10.0 0.00 0.26 0.26 67 1010.2
20260510032047 59 0 4.0 10.0 0.00 0.26 0.26 67 1010.2
20260510031543 59 0 4.0 9.0 0.00 0.26 0.26 67 1010.2
20260510031044 59 0 3.0 8.0 0.00 0.26 0.26 68 1010.2
20260510030543 59 0 3.0 8.0 0.00 0.26 0.26 67 1010.2
20260510030046 59 0 3.0 8.0 0.00 0.26 0.26 67 1010.2
20260510025543 59 0 3.0 6.0 0.00 0.26 0.26 67 1010.2
20260510025041 59 0 2.0 5.0 0.00 0.26 0.26 67 1010.2
20260510024540 59 0 2.0 6.0 0.00 0.26 0.26 67 1010.2
20260510024044 59 0 2.0 6.0 0.00 0.26 0.26 67 1010.0
20260510024040 59 0 3.0 6.0 0.00 0.26 0.26 67 1010.1
20260510023038 59 0 2.0 6.0 0.00 0.26 0.26 67 1010.0
20260510022539 59 0 2.0 6.0 0.00 0.26 0.26 67 1010.1
20260510022037 59 0 2.0 6.0 0.00 0.26 0.26 66 1009.9
20260510021536 59 0 2.0 4.0 0.00 0.26 0.26 66 1009.9
20260510021310 59 0 2.0 4.0 0.00 0.26 0.26 66 1009.8
20260510020537 59 0 1.0 3.0 0.00 0.26 0.26 65 1009.9
20260510020036 59 0 1.0 3.0 0.00 0.26 0.26 65 1009.8
20260510015534 60 0 1.0 3.0 0.00 0.26 0.26 65 1009.9
20260510015034 60 0 1.0 3.0 0.00 0.26 0.26 64 1009.9
20260510014534 60 0 1.0 4.0 0.00 0.26 0.26 64 1009.9
20260510014035 60 244 1.0 4.0 0.00 0.26 0.26 64 1009.8
20260510013532 60 0 1.0 3.0 0.00 0.26 0.26 64 1009.8
20260510013033 60 0 1.0 3.0 0.00 0.26 0.26 64 1009.7
20260510012534 60 0 2.0 3.0 0.00 0.26 0.26 64 1009.6
20260510012031 60 0 2.0 6.0 0.00 0.26 0.26 63 1009.4
20260510011529 61 0 2.0 6.0 0.00 0.26 0.26 63 1009.5
20260510011259 61 0 2.0 3.0 0.00 0.26 0.26 62 1009.4
20260510010528 62 215 1.0 3.0 0.00 0.26 0.26 60 1009.5
20260510005758 62 219 1.0 4.0 0.00 0.26 0.26 60 1009.5
20260510005030 62 0 1.0 4.0 0.00 0.26 0.26 60 1009.4
20260510004526 63 0 2.0 4.0 0.00 0.26 0.26 60 1009.4
20260510004023 63 0 2.0 4.0 0.00 0.26 0.26 60 1009.4
20260510003523 63 0 2.0 4.0 0.00 0.26 0.26 59 1009.3
20260510003254 63 0 2.0 3.0 0.00 0.26 0.26 59 1009.2
20260510002521 64 218 2.0 5.0 0.00 0.26 0.26 58 1009.2
20260510002253 64 219 2.0 5.0 0.00 0.26 0.26 58 1009.0
20260510001752 64 0 2.0 4.0 0.00 0.26 0.26 58 1009.0
20260510001021 64 223 2.0 5.0 0.00 0.26 0.26 58 1008.9
20260510000520 65 238 2.0 5.0 0.00 0.26 0.26 57 1009.0
20260510000019 65 0 2.0 5.0 0.00 0.26 0.26 57 1008.9
20260509235752 65 0 3.0 5.0 0.00 0.26 0.26 57 1008.9
20260509235249 65 234 3.0 8.0 0.00 0.26 0.26 57 1009.0
20260509234517 65 0 3.0 8.0 0.00 0.26 0.26 56 1008.9
20260509234017 65 0 3.0 12.0 0.00 0.26 0.26 56 1008.9
20260509233518 65 0 4.0 12.0 0.00 0.26 0.26 55 1008.9
20260509233016 66 217 4.0 11.0 0.00 0.26 0.26 55 1008.8
20260509232746 66 0 5.0 11.0 0.00 0.26 0.26 55 1008.8
20260509232016 66 0 6.0 11.0 0.00 0.26 0.26 54 1008.7
20260509231515 66 0 6.0 12.0 0.00 0.26 0.26 54 1008.8
20260509231012 66 0 5.0 12.0 0.00 0.26 0.26 54 1009.0
20260509230509 66 0 5.0 11.0 0.00 0.26 0.26 54 1009.1
20260509230011 66 0 6.0 14.0 0.00 0.26 0.26 54 1009.0
20260509225749 66 0 7.0 14.0 0.00 0.26 0.26 53 1009.1
20260509225509 66 0 7.0 14.0 0.00 0.26 0.26 53 1009.1
20260509224510 67 182 7.0 15.0 0.00 0.26 0.26 54 1009.1
20260509224011 67 0 9.0 15.0 0.00 0.26 0.26 53 1009.2
20260509223510 67 192 8.0 16.0 0.00 0.26 0.26 53 1009.2
20260509223011 67 0 6.0 16.0 0.00 0.26 0.26 54 1009.2
20260509222510 67 0 6.0 15.0 0.00 0.26 0.26 52 1009.3
20260509222008 68 0 7.0 16.0 0.00 0.26 0.26 53 1009.3
20260509221509 68 235 6.0 16.0 0.00 0.26 0.26 52 1009.3
20260509221008 69 0 5.0 14.0 0.00 0.26 0.26 52 1009.3
20260509220509 69 0 5.0 12.0 0.00 0.26 0.26 53 1009.3
20260509220009 69 0 7.0 15.0 0.00 0.26 0.26 52 1009.3
20260509215504 68 0 8.0 15.0 0.00 0.26 0.26 52 1009.3
20260509215004 68 175 8.0 17.0 0.00 0.26 0.26 53 1009.4
20260509214502 68 0 7.0 17.0 0.00 0.26 0.26 51 1009.4
20260509214001 68 0 7.0 14.0 0.00 0.26 0.26 55 1009.5
20260509213501 68 170 8.0 14.0 0.00 0.26 0.26 55 1009.4
20260509213004 68 0 7.0 14.0 0.00 0.26 0.26 55 1009.3
20260509212501 68 0 5.0 13.0 0.00 0.26 0.26 54 1009.3
20260509212001 67 0 5.0 12.0 0.00 0.26 0.26 53 1009.4
20260509211501 67 0 5.0 13.0 0.00 0.26 0.26 52 1009.4
20260509211231 67 0 6.0 17.0 0.00 0.26 0.26 52 1009.3
20260509210458 67 0 6.0 17.0 0.00 0.26 0.26 52 1009.3
20260509205958 67 242 5.0 11.0 0.00 0.26 0.26 53 1009.5
20260509205458 68 0 7.0 18.0 0.00 0.26 0.26 53 1009.4
20260509205005 68 167 4.0 14.0 0.00 0.26 0.26 54 1009.6
20260509204959 68 0 7.0 18.0 0.00 0.26 0.26 52 1009.5
20260509203957 67 0 6.0 16.0 0.00 0.26 0.26 55 1009.5
20260509203456 67 167 8.0 16.0 0.00 0.26 0.26 55 1009.5
20260509202956 67 244 8.0 15.0 0.00 0.26 0.26 54 1009.4
20260509202457 68 0 8.0 15.0 0.00 0.26 0.26 53 1009.4
20260509201957 67 0 6.0 18.0 0.00 0.26 0.26 55 1009.6
20260509201456 67 225 6.0 18.0 0.00 0.26 0.26 53 1009.6
20260509200954 67 0 7.0 16.0 0.00 0.26 0.26 55 1009.8
20260509200456 67 0 8.0 16.0 0.00 0.26 0.26 57 1009.8
20260509200224 67 0 7.0 13.0 0.00 0.26 0.26 55 1009.9
20260509195455 67 0 7.0 13.0 0.00 0.26 0.26 57 1009.9
20260509194956 67 0 5.0 15.0 0.00 0.26 0.26 56 1010.0
20260509194952 67 238 6.0 15.0 0.00 0.26 0.26 55 1009.9
20260509193951 67 0 6.0 12.0 0.00 0.26 0.26 57 1010.3
20260509193453 67 0 6.0 12.0 0.00 0.26 0.26 57 1010.3
20260509192949 67 192 6.0 14.0 0.00 0.26 0.26 53 1010.3
20260509192449 67 0 7.0 14.0 0.00 0.26 0.26 53 1010.4
20260509191948 67 0 7.0 14.0 0.00 0.26 0.26 58 1010.4
20260509191446 67 0 6.0 13.0 0.00 0.26 0.26 58 1010.4
20260509190945 67 0 4.0 13.0 0.00 0.26 0.26 58 1010.4
20260509190443 66 0 3.0 6.0 0.00 0.26 0.26 61 1010.4
20260509185943 65 196 3.0 8.0 0.00 0.26 0.26 62 1010.4
20260509185442 65 0 3.0 9.0 0.00 0.26 0.26 62 1010.2
20260509184941 64 0 4.0 9.0 0.00 0.26 0.26 63 1010.3
20260509184441 63 0 4.0 9.0 0.00 0.26 0.26 64 1010.2
20260509183938 62 0 3.0 9.0 0.00 0.26 0.26 65 1010.4
20260509183438 61 0 3.0 9.0 0.00 0.26 0.26 63 1010.3
20260509182938 61 0 3.0 8.0 0.00 0.26 0.26 63 1010.3
20260509182444 60 0 2.0 5.0 0.00 0.26 0.26 63 1010.3
20260509182439 60 0 2.0 6.0 0.00 0.26 0.26 64 1010.2
20260509181438 60 0 2.0 5.0 0.00 0.26 0.26 64 1010.2
20260509180939 59 0 2.0 6.0 0.00 0.26 0.26 63 1010.2
20260509180436 59 0 2.0 6.0 0.00 0.26 0.26 64 1010.1
20260509180206 58 197 2.0 6.0 0.00 0.26 0.26 63 1010.0
20260509175434 58 0 3.0 6.0 0.00 0.26 0.26 63 1010.0
20260509174933 58 0 3.0 6.0 0.00 0.26 0.26 63 1009.9
20260509174431 58 0 2.0 5.0 0.00 0.26 0.26 63 1009.8
20260509173930 58 0 2.0 8.0 0.00 0.26 0.26 64 1009.8
20260509173430 57 0 3.0 8.0 0.00 0.26 0.26 64 1009.8
20260509172929 57 0 4.0 6.0 0.00 0.26 0.26 64 1009.8
20260509172427 57 0 3.0 6.0 0.00 0.26 0.26 64 1009.7
20260509171925 56 0 2.0 6.0 0.00 0.26 0.26 64 1009.8
20260509171428 56 0 3.0 6.0 0.00 0.26 0.26 64 1009.7
20260509171158 56 221 3.0 10.0 0.00 0.26 0.26 64 1009.7
20260509170422 56 0 3.0 10.0 0.00 0.26 0.26 64 1009.8
20260509165923 56 0 4.0 8.0 0.00 0.26 0.26 64 1009.7
20260509165423 56 0 4.0 8.0 0.00 0.26 0.26 64 1009.7
20260509164923 56 0 4.0 8.0 0.00 0.26 0.26 65 1009.6
20260509164654 56 0 4.0 11.0 0.00 0.26 0.26 65 1009.6
20260509163920 56 0 5.0 11.0 0.00 0.26 0.26 65 1009.7
20260509163419 56 0 6.0 12.0 0.00 0.26 0.26 65 1009.7
20260509162919 56 0 6.0 12.0 0.00 0.26 0.26 65 1009.6
20260509162416 55 0 5.0 10.0 0.00 0.26 0.26 65 1009.7
20260509161916 55 0 5.0 12.0 0.00 0.26 0.26 65 1009.5
20260509161419 55 177 6.0 12.0 0.00 0.26 0.26 65 1009.6
20260509160917 55 0 7.0 14.0 0.00 0.26 0.26 65 1009.7
20260509160416 55 197 7.0 14.0 0.00 0.26 0.26 65 1009.6
20260509155919 55 0 6.0 14.0 0.00 0.26 0.26 66 1009.8
20260509155649 55 0 6.0 12.0 0.00 0.26 0.26 67 1009.8
20260509154915 55 0 7.0 12.0 0.00 0.26 0.26 67 1009.7
20260509154419 55 152 5.0 12.0 0.00 0.26 0.26 71 1009.8
20260509154413 55 0 6.0 12.0 0.00 0.26 0.26 69 1009.9
20260509153644 55 0 4.0 10.0 0.00 0.26 0.26 71 1009.9
20260509152913 54 0 4.0 10.0 0.00 0.26 0.26 70 1009.9
20260509152412 54 0 4.0 10.0 0.01 0.26 0.26 71 1009.9
20260509151913 54 0 5.0 9.0 0.01 0.26 0.26 71 1010.0
20260509151410 54 0 5.0 10.0 0.01 0.26 0.26 71 1010.0
20260509150910 54 0 5.0 10.0 0.01 0.26 0.26 71 1010.0
20260509150409 54 0 6.0 12.0 0.01 0.26 0.26 71 1009.9
20260509145911 54 0 6.0 11.0 0.01 0.26 0.26 71 1010.0
20260509145907 54 0 7.0 12.0 0.01 0.26 0.26 71 1010.1
20260509144907 54 0 5.0 9.0 0.01 0.26 0.26 71 1010.1
20260509144406 54 0 4.0 9.0 0.01 0.26 0.26 71 1010.0
20260509143907 54 0 5.0 8.0 0.01 0.26 0.26 71 1010.2
20260509143637 53 0 6.0 11.0 0.02 0.26 0.26 71 1010.1
20260509143533 53 0 5.0 11.0 0.02 0.26 0.26 71 1010.1
20260509142637 53 0 3.0 10.0 0.01 0.25 0.25 71 1010.0
20260509141906 54 0 4.0 8.0 0.01 0.25 0.25 72 1010.2
20260509141405 53 0 4.0 8.0 0.01 0.25 0.25 72 1010.3
20260509140904 53 0 3.0 6.0 0.02 0.25 0.25 72 1010.2
20260509140403 53 0 4.0 6.0 0.02 0.25 0.25 72 1010.1
20260509135904 53 0 3.0 6.0 0.03 0.25 0.25 72 1010.2
20260509135402 53 0 2.0 5.0 0.03 0.25 0.25 72 1010.2
20260509134904 53 0 3.0 4.0 0.04 0.25 0.25 72 1010.1
20260509134403 53 0 3.0 4.0 0.05 0.25 0.25 72 1010.2
20260509133902 53 0 2.0 4.0 0.05 0.25 0.25 72 1010.2
20260509133636 53 0 3.0 9.0 0.05 0.24 0.24 72 1010.4
20260509133401 53 0 2.0 4.0 0.05 0.24 0.24 72 1010.1
20260509132359 53 0 3.0 9.0 0.05 0.24 0.24 72 1010.2
20260509131858 53 0 3.0 5.0 0.06 0.24 0.24 72 1010.1
20260509131356 52 0 3.0 6.0 0.06 0.24 0.24 72 1010.3
20260509130856 52 0 3.0 8.0 0.05 0.23 0.23 72 1010.3
20260509130356 52 0 4.0 8.0 0.05 0.23 0.23 72 1010.3
20260509125854 52 0 3.0 8.0 0.04 0.22 0.22 72 1010.4
20260509125353 52 0 3.0 6.0 0.04 0.22 0.22 72 1010.4
20260509124858 52 0 3.0 6.0 0.03 0.20 0.20 72 1010.5
20260509124854 52 0 3.0 6.0 0.03 0.21 0.21 72 1010.5